"read_dt","SO2 (ppb)","flags","PMT voltage (V)","lamp voltage (V)","lamp intensity (Hz)","internal temp (C)","react chamber temp (C)","sample flow (l/min)","pres (mmHg)","SO2 bkg (ppb)","SO2 coefficient"
2014-07-04 00:00:00,1873E-3,5C000000,-0724,0836,12050,027.1,045.5,0.488,742.6,01.18,0.508
2014-07-04 00:01:00,1891E-3,5C000000,-0724,0835,12065,027.1,045.5,0.488,742.5,01.18,0.508
2014-07-04 00:02:00,1835E-3,5C000000,-0724,0835,12059,027.1,045.5,0.488,742.6,01.18,0.508
2014-07-04 00:03:00,1720E-3,5C000000,-0724,0834,12211,027.1,045.5,0.488,742.5,01.18,0.508
2014-07-04 00:04:00,1838E-3,5C000000,-0724,0836,12189,027.1,045.5,0.487,742.5,01.18,0.508
2014-07-04 00:05:00,1764E-3,5C000000,-0724,0836,12188,027.1,045.5,0.488,742.5,01.18,0.508
2014-07-04 00:06:00,1693E-3,5C000000,-0724,0836,12203,027.1,045.5,0.488,742.5,01.18,0.508
2014-07-04 00:07:00,1913E-3,5C000000,-0724,0835,11937,027.1,045.5,0.487,742.5,01.18,0.508
2014-07-04 00:08:00,1922E-3,5C000000,-0724,0834,12199,027.1,045.5,0.488,742.5,01.18,0.508
2014-07-04 00:09:00,1720E-3,5C000000,-0724,0835,12056,027.1,045.5,0.487,742.5,01.18,0.508
2014-07-04 00:10:00,1765E-3,5C000000,-0724,0835,12020,027.1,045.5,0.488,742.5,01.18,0.508
2014-07-04 00:11:00,1775E-3,5C000000,-0724,0836,12298,027.1,045.5,0.488,742.5,01.18,0.508
2014-07-04 00:12:00,1869E-3,5C000000,-0724,0834,12329,027.1,045.5,0.487,742.5,01.18,0.508
2014-07-04 00:13:00,1785E-3,5C000000,-0724,0834,12250,027.1,045.5,0.488,742.5,01.18,0.508
2014-07-04 00:14:00,1806E-3,5C000000,-0724,0835,11967,027.1,045.5,0.488,742.6,01.18,0.508
2014-07-04 00:15:00,1855E-3,5C000000,-0724,0836,12108,027.1,045.5,0.488,742.5,01.18,0.508
2014-07-04 00:16:00,1866E-3,5C000000,-0724,0835,12217,027.1,045.5,0.488,742.6,01.18,0.508
2014-07-04 00:17:00,1967E-3,5C000000,-0724,0835,12252,027.1,045.5,0.487,742.6,01.18,0.508
2014-07-04 00:18:00,1825E-3,5C000000,-0724,0834,11980,027.1,045.5,0.488,742.6,01.18,0.508
2014-07-04 00:19:00,1845E-3,5C000000,-0724,0836,12200,027.1,045.4,0.488,742.5,01.18,0.508
2014-07-04 00:20:00,1782E-3,5C000000,-0724,0834,11975,027.1,045.5,0.487,742.6,01.18,0.508
2014-07-04 00:21:00,1834E-3,5C000000,-0724,0835,12024,027.1,045.5,0.488,742.6,01.18,0.508
2014-07-04 00:22:00,1817E-3,5C000000,-0724,0835,12255,027.1,045.5,0.487,742.6,01.18,0.508
2014-07-04 00:23:00,1772E-3,5C000000,-0724,0835,11969,027.1,045.4,0.488,742.6,01.18,0.508
2014-07-04 00:24:00,1823E-3,5C000000,-0724,0835,12327,027.1,045.5,0.488,742.6,01.18,0.508
2014-07-04 00:25:00,1863E-3,5C000000,-0724,0835,12220,027.2,045.5,0.487,742.6,01.18,0.508
2014-07-04 00:26:00,1798E-3,5C000000,-0724,0835,12172,027.2,045.5,0.488,742.6,01.18,0.508
2014-07-04 00:27:00,1869E-3,5C000000,-0724,0835,12306,027.2,045.5,0.487,742.6,01.18,0.508
2014-07-04 00:28:00,1706E-3,5C000000,-0724,0835,12224,027.2,045.5,0.488,742.6,01.18,0.508
2014-07-04 00:29:00,1706E-3,5C000000,-0724,0835,12027,027.2,045.5,0.488,742.6,01.18,0.508
2014-07-04 00:30:00,1835E-3,5C000000,-0724,0835,12101,027.2,045.5,0.487,742.5,01.18,0.508
2014-07-04 00:31:00,1862E-3,5C000000,-0724,0835,12093,027.2,045.4,0.488,742.6,01.18,0.508
2014-07-04 00:32:00,1661E-3,5C000000,-0724,0835,12144,027.2,045.4,0.487,742.6,01.18,0.508
2014-07-04 00:33:00,1852E-3,5C000000,-0724,0835,12171,027.2,045.5,0.488,742.6,01.18,0.508
2014-07-04 00:34:00,1694E-3,5C000000,-0724,0834,12166,027.2,045.5,0.488,742.6,01.18,0.508
2014-07-04 00:35:00,1757E-3,5C000000,-0724,0835,12197,027.2,045.5,0.487,742.6,01.18,0.508
2014-07-04 00:36:00,1812E-3,5C000000,-0724,0835,12156,027.2,045.5,0.488,742.6,01.18,0.508
2014-07-04 00:37:00,1733E-3,5C000000,-0724,0835,12025,027.2,045.5,0.487,742.5,01.18,0.508
2014-07-04 00:38:00,1828E-3,5C000000,-0724,0835,12294,027.2,045.5,0.487,742.6,01.18,0.508
2014-07-04 00:39:00,1818E-3,5C000000,-0724,0835,12202,027.2,045.5,0.488,742.5,01.18,0.508
2014-07-04 00:40:00,1834E-3,5C000000,-0724,0835,12217,027.2,045.5,0.487,742.5,01.18,0.508
2014-07-04 00:41:00,1920E-3,5C000000,-0724,0836,12100,027.3,045.5,0.488,742.5,01.18,0.508
2014-07-04 00:42:00,1821E-3,5C000000,-0724,0835,12167,027.3,045.5,0.487,742.5,01.18,0.508
2014-07-04 00:43:00,1844E-3,5C000000,-0724,0834,12082,027.2,045.5,0.487,742.5,01.18,0.508
2014-07-04 00:44:00,1908E-3,5C000000,-0724,0835,12052,027.3,045.5,0.488,742.6,01.18,0.508
2014-07-04 00:45:00,1796E-3,5C000000,-0724,0836,12121,027.3,045.5,0.487,742.5,01.18,0.508
2014-07-04 00:46:00,1808E-3,5C000000,-0724,0835,12063,027.3,045.5,0.488,742.6,01.18,0.508
2014-07-04 00:47:00,1815E-3,5C000000,-0724,0835,12061,027.3,045.4,0.487,742.5,01.18,0.508
2014-07-04 00:48:00,1745E-3,5C000000,-0724,0836,12346,027.3,045.5,0.488,742.5,01.18,0.508
2014-07-04 00:49:00,1733E-3,5C000000,-0724,0835,12271,027.3,045.5,0.487,742.5,01.18,0.508
2014-07-04 00:50:00,1801E-3,5C000000,-0724,0834,11920,027.3,045.5,0.487,742.5,01.18,0.508
2014-07-04 00:51:00,1787E-3,5C000000,-0724,0835,12143,027.3,045.5,0.488,742.5,01.18,0.508
2014-07-04 00:52:00,1937E-3,5C000000,-0724,0835,12405,027.3,045.5,0.487,742.5,01.18,0.508
2014-07-04 00:53:00,1828E-3,5C000000,-0724,0834,12215,027.3,045.5,0.488,742.5,01.18,0.508
2014-07-04 00:54:00,1952E-3,5C000000,-0724,0836,11874,027.3,045.5,0.487,742.5,01.18,0.508
2014-07-04 00:55:00,1833E-3,5C000000,-0724,0834,12181,027.3,045.5,0.488,742.5,01.18,0.508
2014-07-04 00:56:00,1894E-3,5C000000,-0724,0835,12234,027.3,045.5,0.487,742.5,01.18,0.508
2014-07-04 00:57:00,1847E-3,5C000000,-0724,0835,12106,027.3,045.5,0.487,742.4,01.18,0.508
2014-07-04 00:58:00,1806E-3,5C000000,-0724,0835,12128,027.3,045.5,0.487,742.4,01.18,0.508
2014-07-04 00:59:00,1861E-3,5C000000,-0724,0834,12251,027.3,045.5,0.487,742.4,01.18,0.508
2014-07-04 01:00:00,1853E-3,5C000000,-0724,0835,12093,027.3,045.5,0.488,742.4,01.18,0.508
2014-07-04 01:01:00,1878E-3,5C000000,-0724,0834,12007,027.3,045.5,0.487,742.4,01.18,0.508
2014-07-04 01:02:00,1812E-3,5C000000,-0724,0835,12331,027.3,045.5,0.488,742.5,01.18,0.508
2014-07-04 01:03:00,1900E-3,5C000000,-0724,0836,12137,027.3,045.4,0.487,742.5,01.18,0.508
2014-07-04 01:04:00,1837E-3,5C000000,-0724,0835,12114,027.3,045.4,0.487,742.5,01.18,0.508
2014-07-04 01:05:00,1730E-3,5C000000,-0724,0834,12188,027.4,045.5,0.487,742.5,01.18,0.508
2014-07-04 01:06:00,1849E-3,5C000000,-0724,0835,12133,027.3,045.5,0.487,742.5,01.18,0.508
2014-07-04 01:07:00,1863E-3,5C000000,-0724,0834,12017,027.4,045.5,0.487,742.4,01.18,0.508
2014-07-04 01:08:00,1811E-3,5C000000,-0724,0834,12128,027.4,045.5,0.487,742.4,01.18,0.508
2014-07-04 01:09:00,1875E-3,5C000000,-0724,0836,12123,027.4,045.4,0.487,742.4,01.18,0.508
2014-07-04 01:10:00,1826E-3,5C000000,-0724,0835,12162,027.4,045.4,0.487,742.4,01.18,0.508
2014-07-04 01:11:00,1849E-3,5C000000,-0724,0835,12029,027.4,045.5,0.487,742.4,01.18,0.508
2014-07-04 01:12:00,1802E-3,5C000000,-0724,0836,12112,027.4,045.5,0.487,742.3,01.18,0.508
2014-07-04 01:13:00,1846E-3,5C000000,-0724,0835,12256,027.4,045.5,0.487,742.3,01.18,0.508
2014-07-04 01:14:00,1951E-3,5C000000,-0724,0835,12316,027.4,045.5,0.487,742.3,01.18,0.508
2014-07-04 01:15:00,1811E-3,5C000000,-0724,0835,12107,027.4,045.5,0.487,742.3,01.18,0.508
2014-07-04 01:16:00,1987E-3,5C000000,-0724,0836,12303,027.4,045.5,0.487,742.3,01.18,0.508
2014-07-04 01:17:00,1835E-3,5C000000,-0724,0834,12174,027.4,045.5,0.487,742.3,01.18,0.508
2014-07-04 01:18:00,1947E-3,5C000000,-0724,0835,12082,027.4,045.5,0.487,742.3,01.18,0.508
2014-07-04 01:19:00,1896E-3,5C000000,-0724,0835,12145,027.4,045.5,0.487,742.3,01.18,0.508
2014-07-04 01:20:00,1825E-3,5C000000,-0724,0835,12026,027.4,045.5,0.487,742.3,01.18,0.508
2014-07-04 01:21:00,1834E-3,5C000000,-0724,0836,12240,027.4,045.5,0.487,742.3,01.18,0.508
2014-07-04 01:22:00,1794E-3,5C000000,-0724,0835,12272,027.4,045.5,0.487,742.3,01.18,0.508
2014-07-04 01:23:00,1770E-3,5C000000,-0724,0835,12174,027.4,045.5,0.487,742.3,01.18,0.508
2014-07-04 01:24:00,1759E-3,5C000000,-0724,0836,12319,027.4,045.5,0.487,742.3,01.18,0.508
2014-07-04 01:25:00,1790E-3,5C000000,-0724,0835,12281,027.4,045.5,0.487,742.3,01.18,0.508
2014-07-04 01:26:00,1762E-3,5C000000,-0724,0835,12208,027.5,045.5,0.487,742.3,01.18,0.508
2014-07-04 01:27:00,1977E-3,5C000000,-0724,0835,12209,027.5,045.5,0.487,742.3,01.18,0.508
2014-07-04 01:28:00,1909E-3,5C000000,-0724,0836,12186,027.4,045.5,0.487,742.3,01.18,0.508
2014-07-04 01:29:00,1766E-3,5C000000,-0724,0834,12210,027.5,045.5,0.487,742.3,01.18,0.508
2014-07-04 01:30:00,1773E-3,5C000000,-0724,0835,12327,027.5,045.5,0.487,742.3,01.18,0.508
2014-07-04 01:31:00,1753E-3,5C000000,-0724,0834,12390,027.5,045.5,0.487,742.3,01.18,0.508
2014-07-04 01:32:00,1813E-3,5C000000,-0724,0835,12275,027.5,045.5,0.487,742.3,01.18,0.508
2014-07-04 01:33:00,1864E-3,5C000000,-0724,0836,12213,027.5,045.5,0.487,742.2,01.18,0.508
2014-07-04 01:34:00,1730E-3,5C000000,-0724,0836,12263,027.5,045.5,0.487,742.2,01.18,0.508
2014-07-04 01:35:00,1835E-3,5C000000,-0724,0835,12062,027.5,045.5,0.487,742.2,01.18,0.508
2014-07-04 01:36:00,1867E-3,5C000000,-0724,0835,12195,027.5,045.5,0.487,742.2,01.18,0.508
2014-07-04 01:37:00,1849E-3,5C000000,-0724,0836,12114,027.5,045.5,0.487,742.2,01.18,0.508
2014-07-04 01:38:00,1884E-3,5C000000,-0724,0835,12172,027.5,045.5,0.487,742.2,01.18,0.508
2014-07-04 01:39:00,1836E-3,5C000000,-0724,0835,12290,027.5,045.5,0.487,742.2,01.18,0.508
2014-07-04 01:40:00,1809E-3,5C000000,-0724,0835,12112,027.5,045.5,0.487,742.2,01.18,0.508
2014-07-04 01:41:00,1893E-3,5C000000,-0724,0836,12226,027.5,045.5,0.487,742.2,01.18,0.508
2014-07-04 01:42:00,1864E-3,5C000000,-0724,0835,12283,027.5,045.5,0.487,742.2,01.18,0.508
2014-07-04 01:43:00,1915E-3,5C000000,-0724,0834,12206,027.5,045.5,0.487,742.2,01.18,0.508
2014-07-04 01:44:00,1848E-3,5C000000,-0724,0835,11987,027.5,045.5,0.487,742.2,01.18,0.508
2014-07-04 01:45:00,1829E-3,5C000000,-0724,0834,12112,027.5,045.5,0.487,742.2,01.18,0.508
2014-07-04 01:46:00,1849E-3,5C000000,-0724,0835,11911,027.5,045.5,0.487,742.2,01.18,0.508
2014-07-04 01:47:00,1840E-3,5C000000,-0724,0837,12178,027.5,045.5,0.487,742.2,01.18,0.508
2014-07-04 01:48:00,1933E-3,5C000000,-0724,0836,12217,027.5,045.5,0.487,742.2,01.18,0.508
2014-07-04 01:49:00,1918E-3,5C000000,-0724,0835,12220,027.5,045.5,0.487,742.2,01.18,0.508
2014-07-04 01:50:00,1720E-3,5C000000,-0724,0835,12065,027.5,045.5,0.487,742.2,01.18,0.508
2014-07-04 01:51:00,1894E-3,5C000000,-0724,0835,12098,027.5,045.5,0.487,742.3,01.18,0.508
2014-07-04 01:52:00,1859E-3,5C000000,-0724,0836,12033,027.5,045.5,0.487,742.3,01.18,0.508
2014-07-04 01:53:00,1926E-3,5C000000,-0724,0835,12126,027.5,045.5,0.487,742.2,01.18,0.508
2014-07-04 01:54:00,1792E-3,5C000000,-0724,0836,12260,027.5,045.5,0.487,742.2,01.18,0.508
2014-07-04 01:55:00,1859E-3,5C000000,-0724,0835,12093,027.6,045.5,0.487,742.2,01.18,0.508
2014-07-04 01:56:00,1936E-3,5C000000,-0724,0835,12047,027.6,045.5,0.487,742.2,01.18,0.508
2014-07-04 01:57:00,1643E-3,5C000000,-0724,0836,12164,027.6,045.5,0.487,742.2,01.18,0.508
2014-07-04 01:58:00,1896E-3,5C000000,-0724,0835,11940,027.6,045.5,0.487,742.2,01.18,0.508
2014-07-04 01:59:00,1804E-3,5C000000,-0724,0836,12198,027.6,045.5,0.487,742.2,01.18,0.508
2014-07-04 02:00:00,1789E-3,5C000000,-0724,0835,12291,027.6,045.5,0.487,742.2,01.18,0.508
2014-07-04 02:01:00,1873E-3,5C000000,-0724,0835,12089,027.6,045.5,0.487,742.2,01.18,0.508
2014-07-04 02:02:00,1763E-3,5C000000,-0724,0836,12204,027.6,045.5,0.486,742.2,01.18,0.508
2014-07-04 02:03:00,1825E-3,5C000000,-0724,0835,12332,027.6,045.5,0.487,742.3,01.18,0.508
2014-07-04 02:04:00,1872E-3,5C000000,-0724,0835,12175,027.6,045.5,0.487,742.2,01.18,0.508
2014-07-04 02:05:00,1964E-3,5C000000,-0724,0835,12082,027.6,045.5,0.487,742.2,01.18,0.508
2014-07-04 02:06:00,1724E-3,5C000000,-0724,0835,12137,027.6,045.5,0.487,742.2,01.18,0.508
2014-07-04 02:07:00,1832E-3,5C000000,-0724,0835,12040,027.6,045.5,0.487,742.2,01.18,0.508
2014-07-04 02:08:00,1899E-3,5C000000,-0724,0835,12124,027.6,045.5,0.487,742.2,01.18,0.508
2014-07-04 02:09:00,1821E-3,5C000000,-0724,0836,12231,027.6,045.5,0.487,742.2,01.18,0.508
2014-07-04 02:10:00,1821E-3,5C000000,-0724,0835,12070,027.6,045.5,0.487,742.2,01.18,0.508
2014-07-04 02:11:00,1911E-3,5C000000,-0724,0836,12165,027.6,045.5,0.487,742.2,01.18,0.508
2014-07-04 02:12:00,1657E-3,5C000000,-0724,0835,12067,027.6,045.5,0.487,742.2,01.18,0.508
2014-07-04 02:13:00,2002E-3,5C000000,-0724,0835,12198,027.6,045.5,0.487,742.2,01.18,0.508
2014-07-04 02:14:00,1626E-3,5C000000,-0724,0835,11984,027.6,045.5,0.487,742.2,01.18,0.508
2014-07-04 02:15:00,1767E-3,5C000000,-0724,0836,12290,027.6,045.5,0.487,742.2,01.18,0.508
2014-07-04 02:16:00,1862E-3,5C000000,-0724,0836,12094,027.6,045.5,0.487,742.3,01.18,0.508
2014-07-04 02:17:00,1837E-3,5C000000,-0724,0836,12273,027.6,045.5,0.487,742.3,01.18,0.508
2014-07-04 02:18:00,1844E-3,5C000000,-0724,0836,12171,027.6,045.5,0.487,742.2,01.18,0.508
2014-07-04 02:19:00,1788E-3,5C000000,-0724,0835,12059,027.6,045.5,0.487,742.2,01.18,0.508
2014-07-04 02:20:00,1886E-3,5C000000,-0724,0835,12161,027.6,045.5,0.487,742.2,01.18,0.508
2014-07-04 02:21:00,1685E-3,5C000000,-0724,0835,12324,027.6,045.5,0.487,742.2,01.18,0.508
2014-07-04 02:22:00,1791E-3,5C000000,-0724,0836,12050,027.6,045.5,0.487,742.2,01.18,0.508
2014-07-04 02:23:00,1907E-3,5C000000,-0724,0835,12229,027.6,045.5,0.487,742.2,01.18,0.508
2014-07-04 02:24:00,1785E-3,5C000000,-0724,0835,12186,027.6,045.5,0.487,742.2,01.18,0.508
2014-07-04 02:25:00,1791E-3,5C000000,-0724,0835,12174,027.6,045.5,0.487,742.3,01.18,0.508
2014-07-04 02:26:00,1759E-3,5C000000,-0724,0835,12163,027.7,045.5,0.487,742.3,01.18,0.508
2014-07-04 02:27:00,1856E-3,5C000000,-0724,0835,12118,027.6,045.5,0.487,742.3,01.18,0.508
2014-07-04 02:28:00,1868E-3,5C000000,-0724,0837,12095,027.6,045.5,0.487,742.3,01.18,0.508
2014-07-04 02:29:00,1910E-3,5C000000,-0724,0835,12231,027.6,045.5,0.487,742.2,01.18,0.508
2014-07-04 02:30:00,1814E-3,5C000000,-0724,0836,12360,027.6,045.5,0.487,742.2,01.18,0.508
2014-07-04 02:31:00,1847E-3,5C000000,-0724,0836,12130,027.7,045.5,0.487,742.2,01.18,0.508
2014-07-04 02:32:00,1757E-3,5C000000,-0724,0835,12235,027.6,045.5,0.487,742.2,01.18,0.508
2014-07-04 02:33:00,1699E-3,5C000000,-0724,0835,12011,027.7,045.5,0.487,742.2,01.18,0.508
2014-07-04 02:34:00,1720E-3,5C000000,-0724,0835,11964,027.7,045.5,0.487,742.2,01.18,0.508
2014-07-04 02:35:00,1833E-3,5C000000,-0724,0835,12132,027.7,045.5,0.487,742.2,01.18,0.508
2014-07-04 02:36:00,1849E-3,5C000000,-0724,0835,11983,027.6,045.5,0.487,742.2,01.18,0.508
2014-07-04 02:37:00,1790E-3,5C000000,-0724,0835,12067,027.6,045.5,0.487,742.2,01.18,0.508
2014-07-04 02:38:00,1965E-3,5C000000,-0724,0835,12251,027.7,045.5,0.487,742.2,01.18,0.508
2014-07-04 02:39:00,1817E-3,5C000000,-0724,0835,12273,027.7,045.5,0.487,742.2,01.18,0.508
2014-07-04 02:40:00,1880E-3,5C000000,-0724,0835,12249,027.7,045.5,0.486,742.2,01.18,0.508
2014-07-04 02:41:00,1827E-3,5C000000,-0724,0836,11961,027.7,045.5,0.487,742.2,01.18,0.508
2014-07-04 02:42:00,1885E-3,5C000000,-0724,0835,12156,027.7,045.5,0.486,742.2,01.18,0.508
2014-07-04 02:43:00,1874E-3,5C000000,-0724,0835,12329,027.7,045.5,0.487,742.2,01.18,0.508
2014-07-04 02:44:00,1825E-3,5C000000,-0724,0835,12069,027.7,045.5,0.486,742.2,01.18,0.508
2014-07-04 02:45:00,1901E-3,5C000000,-0724,0836,12157,027.7,045.5,0.487,742.2,01.18,0.508
2014-07-04 02:46:00,1680E-3,5C000000,-0724,0834,12038,027.7,045.5,0.487,742.2,01.18,0.508
2014-07-04 02:47:00,1755E-3,5C000000,-0724,0836,12063,027.7,045.5,0.486,742.2,01.18,0.508
2014-07-04 02:48:00,1978E-3,5C000000,-0724,0836,12033,027.7,045.5,0.487,742.2,01.18,0.508
2014-07-04 02:49:00,1821E-3,5C000000,-0724,0835,12030,027.7,045.5,0.486,742.2,01.18,0.508
2014-07-04 02:50:00,1823E-3,5C000000,-0724,0835,12100,027.7,045.5,0.487,742.2,01.18,0.508
2014-07-04 02:51:00,1816E-3,5C000000,-0724,0836,12145,027.7,045.5,0.486,742.2,01.18,0.508
2014-07-04 02:52:00,1796E-3,5C000000,-0724,0835,12130,027.7,045.5,0.487,742.2,01.18,0.508
2014-07-04 02:53:00,1828E-3,5C000000,-0724,0837,12053,027.7,045.5,0.486,742.2,01.18,0.508
2014-07-04 02:54:00,1780E-3,5C000000,-0724,0835,12189,027.7,045.5,0.487,742.2,01.18,0.508
2014-07-04 02:55:00,1932E-3,5C000000,-0724,0836,12244,027.7,045.5,0.486,742.2,01.18,0.508
2014-07-04 02:56:00,1856E-3,5C000000,-0724,0835,12119,027.7,045.5,0.487,742.2,01.18,0.508
2014-07-04 02:57:00,1891E-3,5C000000,-0724,0836,12144,027.7,045.5,0.486,742.2,01.18,0.508
2014-07-04 02:58:00,1714E-3,5C000000,-0724,0835,12107,027.7,045.5,0.487,742.2,01.18,0.508
2014-07-04 02:59:00,1814E-3,5C000000,-0724,0835,12203,027.7,045.5,0.487,742.2,01.18,0.508
2014-07-04 03:00:00,1831E-3,5C000000,-0724,0836,12161,027.7,045.5,0.487,742.2,01.18,0.508
2014-07-04 03:01:00,1812E-3,5C000000,-0724,0836,12226,027.7,045.5,0.487,742.2,01.18,0.508
2014-07-04 03:02:00,1853E-3,5C000000,-0724,0836,12159,027.7,045.5,0.487,742.2,01.18,0.508
2014-07-04 03:03:00,1803E-3,5C000000,-0724,0836,12214,027.7,045.5,0.487,742.2,01.18,0.508
2014-07-04 03:04:00,1847E-3,5C000000,-0724,0836,12044,027.7,045.5,0.487,742.2,01.18,0.508
2014-07-04 03:05:00,1852E-3,5C000000,-0724,0836,12190,027.7,045.5,0.487,742.2,01.18,0.508
2014-07-04 03:06:00,1803E-3,5C000000,-0724,0835,12290,027.7,045.5,0.487,742.2,01.18,0.508
2014-07-04 03:07:00,1826E-3,5C000000,-0724,0835,12278,027.7,045.5,0.487,742.2,01.18,0.508
2014-07-04 03:08:00,1931E-3,5C000000,-0724,0834,12237,027.7,045.5,0.487,742.2,01.18,0.508
2014-07-04 03:09:00,1582E-3,5C000000,-0724,0836,12123,027.7,045.5,0.487,742.2,01.18,0.508
2014-07-04 03:10:00,1925E-3,5C000000,-0724,0835,12185,027.7,045.5,0.486,742.2,01.18,0.508
2014-07-04 03:11:00,1757E-3,5C000000,-0724,0836,12124,027.7,045.5,0.487,742.2,01.18,0.508
2014-07-04 03:12:00,1738E-3,5C000000,-0724,0836,11859,027.7,045.5,0.486,742.2,01.18,0.508
2014-07-04 03:13:00,1853E-3,5C000000,-0724,0835,12200,027.7,045.5,0.487,742.2,01.18,0.508
2014-07-04 03:14:00,1767E-3,5C000000,-0724,0835,12080,027.7,045.5,0.486,742.2,01.18,0.508
2014-07-04 03:15:00,1826E-3,5C000000,-0724,0835,12228,027.7,045.5,0.487,742.2,01.18,0.508
2014-07-04 03:16:00,1948E-3,5C000000,-0724,0835,12135,027.7,045.5,0.486,742.2,01.18,0.508
2014-07-04 03:17:00,1910E-3,5C000000,-0724,0835,12246,027.7,045.5,0.487,742.2,01.18,0.508
2014-07-04 03:18:00,1766E-3,5C000000,-0724,0835,11951,027.7,045.5,0.486,742.1,01.18,0.508
2014-07-04 03:19:00,1691E-3,5C000000,-0724,0834,12178,027.7,045.5,0.487,742.1,01.18,0.508
2014-07-04 03:20:00,1752E-3,5C000000,-0724,0836,12121,027.8,045.5,0.486,742.1,01.18,0.508
2014-07-04 03:21:00,1840E-3,5C000000,-0724,0835,12168,027.8,045.5,0.487,742.1,01.18,0.508
2014-07-04 03:22:00,1849E-3,5C000000,-0724,0836,12055,027.8,045.5,0.486,742.1,01.18,0.508
2014-07-04 03:23:00,1832E-3,5C000000,-0724,0837,12162,027.8,045.4,0.487,742.1,01.18,0.508
2014-07-04 03:24:00,1933E-3,5C000000,-0724,0836,12162,027.8,045.5,0.486,742.1,01.18,0.508
2014-07-04 03:25:00,1912E-3,5C000000,-0724,0836,12172,027.8,045.5,0.487,742.1,01.18,0.508
2014-07-04 03:26:00,1775E-3,5C000000,-0724,0835,12114,027.8,045.5,0.486,742.1,01.18,0.508
2014-07-04 03:27:00,1762E-3,5C000000,-0724,0835,12282,027.8,045.5,0.487,742.1,01.18,0.508
2014-07-04 03:28:00,1851E-3,5C000000,-0724,0835,12304,027.8,045.5,0.486,742.2,01.18,0.508
2014-07-04 03:29:00,1857E-3,5C000000,-0724,0836,12261,027.9,045.5,0.487,742.2,01.18,0.508
2014-07-04 03:30:00,1765E-3,5C000000,-0724,0837,12276,027.9,045.5,0.486,742.2,01.18,0.508
2014-07-04 03:31:00,1856E-3,5C000000,-0724,0835,11945,027.9,045.5,0.487,742.2,01.18,0.508
2014-07-04 03:32:00,1778E-3,5C000000,-0724,0835,12127,027.9,045.5,0.486,742.2,01.18,0.508
2014-07-04 03:33:00,2019E-3,5C000000,-0724,0835,12148,027.9,045.5,0.486,742.2,01.18,0.508
2014-07-04 03:34:00,1718E-3,5C000000,-0724,0835,12175,027.9,045.5,0.486,742.2,01.18,0.508
2014-07-04 03:35:00,1759E-3,5C000000,-0724,0835,12120,027.9,045.5,0.486,742.2,01.18,0.508
2014-07-04 03:36:00,1823E-3,5C000000,-0724,0836,12209,027.9,045.5,0.487,742.2,01.18,0.508
2014-07-04 03:37:00,1699E-3,5C000000,-0724,0834,11969,028.0,045.5,0.486,742.1,01.18,0.508
2014-07-04 03:38:00,1865E-3,5C000000,-0724,0835,11963,028.0,045.5,0.487,742.1,01.18,0.508
2014-07-04 03:39:00,1965E-3,5C000000,-0724,0835,11761,028.0,045.5,0.486,742.1,01.18,0.508
2014-07-04 03:40:00,1794E-3,5C000000,-0724,0836,12241,028.0,045.5,0.486,742.1,01.18,0.508
2014-07-04 03:41:00,1821E-3,5C000000,-0724,0834,12243,028.0,045.5,0.486,742.2,01.18,0.508
2014-07-04 03:42:00,1792E-3,5C000000,-0724,0836,12071,028.0,045.5,0.486,742.2,01.18,0.508
2014-07-04 03:43:00,1852E-3,5C000000,-0724,0836,12255,028.0,045.5,0.486,742.1,01.18,0.508
2014-07-04 03:44:00,1912E-3,5C000000,-0724,0834,12193,028.1,045.5,0.486,742.2,01.18,0.508
2014-07-04 03:45:00,1826E-3,5C000000,-0724,0835,12202,028.0,045.5,0.486,742.1,01.18,0.508
2014-07-04 03:46:00,1834E-3,5C000000,-0724,0835,12221,028.1,045.5,0.486,742.2,01.18,0.508
2014-07-04 03:47:00,1790E-3,5C000000,-0724,0835,12163,028.1,045.5,0.486,742.1,01.18,0.508
2014-07-04 03:48:00,1841E-3,5C000000,-0724,0834,12136,028.1,045.5,0.486,742.1,01.18,0.508
2014-07-04 03:49:00,1865E-3,5C000000,-0724,0835,12325,028.1,045.5,0.486,742.1,01.18,0.508
2014-07-04 03:50:00,1852E-3,5C000000,-0724,0833,12249,028.1,045.5,0.486,742.1,01.18,0.508
2014-07-04 03:51:00,1856E-3,5C000000,-0724,0834,12171,028.1,045.5,0.486,742.1,01.18,0.508
2014-07-04 03:52:00,1687E-3,5C000000,-0724,0834,12255,028.1,045.5,0.486,742.1,01.18,0.508
2014-07-04 03:53:00,1776E-3,5C000000,-0724,0834,12346,028.2,045.5,0.486,742.1,01.18,0.508
2014-07-04 03:54:00,1824E-3,5C000000,-0724,0835,12037,028.2,045.5,0.486,742.1,01.18,0.508
2014-07-04 03:55:00,1817E-3,5C000000,-0724,0834,11911,028.2,045.5,0.486,742.1,01.18,0.508
2014-07-04 03:56:00,1785E-3,5C000000,-0724,0834,12319,028.2,045.5,0.486,742.1,01.18,0.508
2014-07-04 03:57:00,1781E-3,5C000000,-0724,0835,12173,028.2,045.5,0.486,742.1,01.18,0.508
2014-07-04 03:58:00,1975E-3,5C000000,-0724,0835,12380,028.2,045.5,0.486,742.0,01.18,0.508
2014-07-04 03:59:00,1696E-3,5C000000,-0724,0835,12087,028.2,045.5,0.486,742.0,01.18,0.508
2014-07-04 04:00:00,1778E-3,5C000000,-0724,0835,12103,028.3,045.5,0.486,742.0,01.18,0.508
2014-07-04 04:01:00,1815E-3,5C000000,-0724,0835,12203,028.3,045.5,0.486,742.1,01.18,0.508
2014-07-04 04:02:00,1839E-3,5C000000,-0724,0835,12142,028.3,045.5,0.486,742.0,01.18,0.508
2014-07-04 04:03:00,1854E-3,5C000000,-0724,0835,12092,028.3,045.5,0.486,742.0,01.18,0.508
2014-07-04 04:04:00,1980E-3,5C000000,-0724,0832,12116,028.3,045.5,0.486,742.0,01.18,0.508
2014-07-04 04:05:00,1953E-3,5C000000,-0724,0834,11976,028.3,045.5,0.486,742.0,01.18,0.508
2014-07-04 04:06:00,1882E-3,5C000000,-0724,0833,12101,028.3,045.5,0.485,742.0,01.18,0.508
2014-07-04 04:07:00,1851E-3,5C000000,-0724,0834,12299,028.3,045.5,0.486,742.0,01.18,0.508
2014-07-04 04:08:00,1833E-3,5C000000,-0724,0835,12182,028.3,045.5,0.486,742.0,01.18,0.508
2014-07-04 04:09:00,1831E-3,5C000000,-0724,0835,12063,028.3,045.5,0.485,742.0,01.18,0.508
2014-07-04 04:10:00,1821E-3,5C000000,-0724,0835,12080,028.3,045.5,0.486,742.0,01.18,0.508
2014-07-04 04:11:00,1902E-3,5C000000,-0724,0835,12332,028.3,045.5,0.486,742.0,01.18,0.508
2014-07-04 04:12:00,1826E-3,5C000000,-0724,0835,12279,028.2,045.5,0.485,742.0,01.18,0.508
2014-07-04 04:13:00,1687E-3,5C000000,-0724,0833,12128,028.3,045.5,0.486,742.0,01.18,0.508
2014-07-04 04:14:00,1756E-3,5C000000,-0724,0835,12136,028.3,045.5,0.486,742.0,01.18,0.508
2014-07-04 04:15:00,1912E-3,5C000000,-0724,0834,12311,028.3,045.5,0.485,742.0,01.18,0.508
2014-07-04 04:16:00,1757E-3,5C000000,-0724,0835,12122,028.3,045.5,0.486,741.9,01.18,0.508
2014-07-04 04:17:00,1859E-3,5C000000,-0724,0835,12133,028.3,045.5,0.486,741.9,01.18,0.508
2014-07-04 04:18:00,1746E-3,5C000000,-0724,0835,12262,028.3,045.5,0.485,741.9,01.18,0.508
2014-07-04 04:19:00,1902E-3,5C000000,-0724,0835,12207,028.3,045.5,0.486,741.9,01.18,0.508
2014-07-04 04:20:00,1808E-3,5C000000,-0724,0835,12110,028.3,045.5,0.486,741.9,01.18,0.508